TimeEDT,TemperatureF,Dew PointF,Humidity,Sea Level PressureIn,VisibilityMPH,Wind Direction,Wind SpeedMPH,Gust SpeedMPH,PrecipitationIn,Events,Conditions,WindDirDegrees,DateUTC
12:51 AM,80.1,73.0,79,30.15,10.0,WNW,5.8,-,N/A,,Partly Cloudy,290,2013-07-30 04:51:00
1:51 AM,81.0,73.0,77,30.15,10.0,WNW,5.8,-,N/A,,Overcast,300,2013-07-30 05:51:00
2:41 AM,80.6,73.4,79,30.14,10.0,WNW,4.6,-,N/A,,Mostly Cloudy,290,2013-07-30 06:41:00
2:51 AM,80.1,73.0,79,30.14,10.0,NW,4.6,-,N/A,,Overcast,310,2013-07-30 06:51:00
3:29 AM,78.8,73.4,83,30.15,2.5,Variable,4.6,-,0.02,Rain,Heavy Rain,0,2013-07-30 07:29:00
3:42 AM,77.0,73.4,89,30.15,8.0,Variable,3.5,-,0.09,Rain,Light Rain,0,2013-07-30 07:42:00
3:51 AM,77.0,73.0,88,30.14,6.0,Variable,3.5,-,0.10,Rain,Light Rain,0,2013-07-30 07:51:00
4:51 AM,75.0,73.0,94,30.15,8.0,ENE,3.5,-,0.00,,Mostly Cloudy,70,2013-07-30 08:51:00
5:51 AM,73.9,71.1,91,30.15,10.0,ENE,4.6,-,N/A,,Mostly Cloudy,70,2013-07-30 09:51:00
6:51 AM,75.0,71.1,87,30.17,10.0,ENE,6.9,-,N/A,,Scattered Clouds,70,2013-07-30 10:51:00
7:51 AM,77.0,71.1,82,30.18,10.0,East,6.9,-,N/A,,Scattered Clouds,80,2013-07-30 11:51:00
8:51 AM,79.0,68.0,69,30.19,10.0,East,5.8,-,N/A,,Overcast,80,2013-07-30 12:51:00
9:51 AM,79.0,68.0,69,30.20,10.0,East,4.6,-,N/A,,Mostly Cloudy,90,2013-07-30 13:51:00
10:51 AM,80.1,68.0,67,30.21,10.0,ENE,4.6,-,N/A,,Overcast,60,2013-07-30 14:51:00
11:51 AM,84.9,68.0,57,30.19,10.0,Variable,4.6,-,N/A,,Partly Cloudy,0,2013-07-30 15:51:00
12:51 PM,84.0,68.0,58,30.18,10.0,ENE,6.9,-,N/A,,Overcast,60,2013-07-30 16:51:00
1:51 PM,84.9,66.0,53,30.18,10.0,Variable,6.9,-,N/A,,Scattered Clouds,0,2013-07-30 17:51:00
2:51 PM,84.0,66.0,55,30.16,10.0,ENE,6.9,-,N/A,,Mostly Cloudy,60,2013-07-30 18:51:00
3:51 PM,82.9,66.9,58,30.15,10.0,ENE,5.8,-,N/A,,Overcast,60,2013-07-30 19:51:00
4:51 PM,82.0,69.1,65,30.15,10.0,NE,8.1,-,N/A,,Overcast,50,2013-07-30 20:51:00
5:51 PM,82.0,70.0,67,30.14,10.0,ENE,4.6,-,N/A,,Mostly Cloudy,70,2013-07-30 21:51:00
6:51 PM,80.1,70.0,71,30.15,10.0,Variable,4.6,-,N/A,,Mostly Cloudy,0,2013-07-30 22:51:00
7:51 PM,79.0,71.1,77,30.16,10.0,ENE,3.5,-,N/A,,Overcast,60,2013-07-30 23:51:00
8:51 PM,79.0,71.1,77,30.15,10.0,East,3.5,-,N/A,,Overcast,90,2013-07-31 00:51:00
9:51 PM,78.1,71.1,79,30.16,10.0,East,3.5,-,N/A,,Overcast,80,2013-07-31 01:51:00
10:51 PM,77.0,69.1,76,30.16,10.0,ENE,4.6,-,N/A,,Overcast,70,2013-07-31 02:51:00
11:51 PM,77.0,71.1,82,30.15,10.0,East,3.5,-,N/A,,Partly Cloudy,90,2013-07-31 03:51:00